RH
18 19 19 18 18 18 17 18 19 19 20 20 20 20 20 18 16 15 14 13 12 11 10 9 9 8 7 7 6 4 4 4
20 19 20 20 20 21 21 20 21 22 24 25 26 27 26 24 22 22 20 18 17 16 15 14 13 12 11 11 10 9 7 5
22 21 20 21 21 23 24 22 24 25 26 27 29 30 30 28 28 28 28 27 24 22 21 20 18 18 16 15 13 12 12 11
21 22 23 22 23 24 26 25 24 24 25 27 28 29 29 29 31 32 33 33 32 31 29 28 26 24 22 21 20 18 16 15
19 21 22 23 24 25 25 24 24 23 25 24 25 28 29 31 33 35 36 39 40 40 39 37 36 34 31 29 28 26 22 21
16 18 19 21 22 23 22 22 25 26 28 28 30 31 34 35 35 37 39 42 43 44 44 43 44 44 42 41 39 36 33 30
15 16 18 19 21 21 21 21 23 26 29 30 32 35 38 39 39 39 43 46 48 48 47 47 49 51 49 46 44 42 40 40
16 18 18 19 20 21 21 22 23 26 27 29 33 36 38 39 40 41 44 45 47 48 50 50 49 47 46 45 44 44 44 41
18 18 19 20 21 21 23 24 26 28 29 32 33 36 38 41 41 43 45 47 49 49 49 47 43 41 40 39 39 40 43 44
18 19 20 22 23 23 23 23 26 30 32 34 35 36 38 40 43 46 46 47 50 51 49 44 40 36 34 32 32 33 37 40
19 21 22 25 26 26 25 26 28 31 32 36 38 36 38 41 45 47 48 51 52 51 46 40 36 34 33 31 31 30 30 30
22 24 26 27 28 29 28 29 30 33 35 38 41 39 40 43 48 52 53 54 52 47 42 38 36 34 33 31 30 30 31 31
24 25 27 29 30 31 32 32 33 35 38 43 47 42 45 50 55 56 56 56 50 44 40 37 36 34 34 33 31 33 33 34
25 27 29 32 33 33 34 35 36 39 44 51 46 46 51 56 59 60 58 52 45 42 39 37 36 34 32 30 33 35 36 34
26 30 33 34 36 36 36 38 42 48 60 54 50 53 58 62 62 61 53 46 42 39 37 36 33 31 30 30 30 29 29 29
30 31 35 37 37 38 40 44 54 61 55 53 56 62 64 63 60 54 47 42 38 37 35 33 32 31 31 31 29 28 30 30
32 36 37 40 40 43 50 59 63 53 55 59 63 65 63 60 55 47 41 36 36 35 34 34 34 33 32 31 31 29 26 28
36 39 41 42 44 49 53 57 57 59 60 62 67 65 61 55 46 39 36 35 35 34 35 35 36 35 35 34 26 23 23 22
39 39 38 39 43 53 59 60 59 62 66 69 66 61 53 44 39 38 35 35 36 36 36 37 39 41 39 35 30 27 25 24